This demonstration page uses our WeatherBlox Daily Observations layout. Learn more.

Left ArrowRight Arrow

Hourly Observations for August 3, 2015

Temp ( °F °C ) Dew Point ( °F °C ) Humidity (%) Winds ( mph kmh ) Pressure ( in mb ) Visibility ( mi km ) Precip ( " mm )
12:53 am 00:53 Clear 76 24.4 58 14.4 54 54 WNW 5 7 29.81 1010 8 13 0.00 0.00
1:53 am 01:53 Clear 75 23.9 58 14.4 55 55 Calm 29.80 1009 8 13 0.00 0.00
2:53 am 02:53 Clear 72 22.2 57 13.9 59 59 Calm 29.81 1009 9 14 0.00 0.00
3:53 am 03:53 Clear 72 22.2 59 15 64 64 Calm 29.81 1010 9 14 0.00 0.00
4:53 am 04:53 Clear 70 21.1 58 14.4 66 66 Calm 29.82 1010 9 14 0.00 0.00
5:53 am 05:53 Clear 70 21.1 58 14.4 66 66 Calm 29.84 1011 8 13 0.00 0.00
6:53 am 06:53 Sunny 71 21.7 57 13.9 61 61 SSW 5 7 29.86 1011 10 16 0.00 0.00
7:53 am 07:53 Sunny 71 21.7 57 13.9 61 61 SE 3 6 29.88 1012 10 16 0.00 0.00
8:53 am 08:53 Sunny 74 23.3 57 13.9 56 56 S 5 7 29.88 1012 10 16 0.00 0.00
9:53 am 09:53 Sunny 78 25.6 56 13.3 47 47 S 5 7 29.88 1012 10 16 0.00 0.00
10:53 am 10:53 Sunny 82 27.8 56 13.3 41 41 VRB 3 6 29.87 1012 10 16 0.00 0.00
11:53 am 11:53 Sunny 86 30 57 13.9 37 37 VRB 5 7 29.86 1011 10 16 0.00 0.00
12:53 pm 12:53 Sunny 90 32.2 57 13.9 33 33 VRB 3 6 29.84 1011 10 16 0.00 0.00
1:53 pm 13:53 Sunny 94 34.4 56 13.3 28 28 undefined N/A 29.82 1010 10 16 0.00 0.00
2:53 pm 14:53 Sunny 96 35.6 53 11.7 23 23 SSW 7 11 29.81 1010 10 16 0.00 0.00
3:53 pm 15:53 Sunny 98 36.7 48 8.9 18 18 SSE 12 19 29.79 1009 10 16 0.00 0.00
4:53 pm 16:53 Sunny 98 36.7 48 8.9 18 18 SSE 13 20 29.77 1008 10 16 0.00 0.00
5:53 pm 17:53 Sunny 97 36.1 47 8.3 18 18 SSE 15 24 29.76 1008 10 16 0.00 0.00
6:53 pm 18:53 Sunny 96 35.6 47 8.3 19 19 S 14 22 29.75 1008 10 16 0.00 0.00
7:53 pm 19:53 Sunny 92 33.3 50 10 24 24 S 10 17 29.77 1008 10 16 0.00 0.00
8:53 pm 20:53 Clear 87 30.6 51 10.6 29 29 S 7 11 29.79 1009 10 16 0.00 0.00
9:53 pm 21:53 Clear 83 28.3 53 11.7 36 36 ESE 5 7 29.82 1010 10 16 0.00 0.00
10:53 pm 22:53 Clear 81 27.2 60 15.6 49 49 S 5 7 29.83 1010 10 16 0.00 0.00
11:53 pm 23:53 Clear 80 26.7 60 15.6 51 51 Calm 29.85 1011 10 16 0.00 0.00

Powered by AerisWeather